Precipitable_Water
1.51 1.53 1.58 1.60 1.66 1.69 1.74 1.77 1.80 1.83 1.81 1.79 1.73 1.72 1.71 1.75 1.83 1.90 1.94 1.88 1.89 1.89 1.94 1.99 1.98 2.03 2.09 2.06 2.03 2.00 1.97 1.91 1.90 1.88 1.83 1.77 1.75 1.71 1.68 1.62 1.52 1.49 1.51 1.53 1.54 1.53 1.50 1.48 1.47 1.49 1.50 1.44 1.45 1.48 1.47 1.49 1.52 1.49 1.51 1.55 1.58 1.66 1.63 1.54 1.44 1.43 1.58 1.66 1.66 1.72 1.77 1.75 1.68 1.68 1.69 1.70 1.73 1.66 1.62 1.66 1.74 1.69 1.67 1.67 1.73
1.50 1.53 1.58 1.60 1.58 1.60 1.65 1.70 1.72 1.75 1.76 1.78 1.74 1.70 1.66 1.73 1.82 1.89 1.86 1.91 1.90 1.90 1.96 1.97 2.01 2.04 2.03 2.04 2.01 2.01 1.98 1.95 1.92 1.89 1.85 1.81 1.76 1.76 1.74 1.72 1.64 1.52 1.49 1.45 1.45 1.46 1.45 1.45 1.46 1.47 1.50 1.45 1.45 1.45 1.46 1.47 1.48 1.47 1.48 1.49 1.51 1.59 1.68 1.59 1.53 1.48 1.43 1.65 1.58 1.69 1.74 1.77 1.63 1.79 1.67 1.65 1.72 1.78 1.68 1.66 1.74 1.79 1.76 1.79 1.81
1.51 1.56 1.57 1.60 1.63 1.64 1.64 1.63 1.66 1.67 1.65 1.61 1.56 1.60 1.66 1.73 1.84 1.85 1.87 1.88 1.92 1.91 1.96 2.00 2.03 2.00 2.02 2.02 2.01 1.99 2.00 1.97 1.97 1.94 1.90 1.86 1.81 1.78 1.78 1.76 1.73 1.65 1.54 1.47 1.46 1.45 1.41 1.41 1.42 1.43 1.43 1.38 1.38 1.41 1.49 1.52 1.53 1.52 1.50 1.53 1.53 1.57 1.64 1.67 1.58 1.49 1.47 1.52 1.60 1.64 1.70 1.71 1.64 1.70 1.76 1.75 1.77 1.84 1.79 1.73 1.76 1.83 1.81 1.85 1.85
1.51 1.53 1.59 1.62 1.66 1.62 1.54 1.55 1.60 1.61 1.56 1.53 1.46 1.51 1.61 1.74 1.83 1.86 1.86 1.88 1.87 1.92 1.95 1.96 1.94 1.94 1.97 1.96 1.98 1.99 1.99 1.98 1.98 1.95 1.92 1.89 1.85 1.81 1.82 1.82 1.80 1.76 1.72 1.67 1.59 1.52 1.45 1.41 1.40 1.41 1.39 1.32 1.31 1.37 1.52 1.57 1.55 1.53 1.51 1.53 1.54 1.57 1.64 1.68 1.69 1.56 1.53 1.47 1.59 1.57 1.62 1.71 1.75 1.65 1.83 1.87 1.78 1.82 1.79 1.79 1.83 1.84 1.87 1.78 1.81
1.51 1.57 1.60 1.62 1.63 1.49 1.39 1.44 1.53 1.56 1.54 1.52 1.47 1.51 1.56 1.62 1.77 1.84 1.87 1.86 1.88 1.91 1.96 2.00 1.95 2.00 1.97 1.93 1.93 1.93 1.95 1.98 1.97 1.96 1.95 1.93 1.89 1.85 1.81 1.80 1.80 1.80 1.78 1.74 1.67 1.61 1.56 1.47 1.43 1.41 1.37 1.29 1.28 1.28 1.43 1.54 1.57 1.56 1.53 1.55 1.54 1.55 1.58 1.61 1.65 1.66 1.55 1.46 1.50 1.68 1.75 1.69 1.77 1.85 1.86 1.84 1.78 1.80 1.83 1.69 1.69 1.72 1.82 1.82 1.74
1.56 1.57 1.63 1.65 1.61 1.49 1.44 1.39 1.41 1.39 1.42 1.44 1.47 1.50 1.53 1.57 1.63 1.73 1.84 1.86 1.90 1.93 1.94 1.98 1.99 1.93 2.01 1.96 1.96 1.96 1.95 1.95 1.94 1.93 1.94 1.95 1.94 1.92 1.90 1.86 1.84 1.81 1.78 1.76 1.73 1.67 1.59 1.55 1.53 1.49 1.40 1.29 1.23 1.24 1.36 1.49 1.55 1.54 1.53 1.53 1.54 1.55 1.54 1.58 1.62 1.65 1.61 1.54 1.50 1.50 1.64 1.62 1.65 1.67 1.77 1.82 1.68 1.61 1.69 1.72 1.78 1.81 1.77 1.70 1.67
1.63 1.59 1.62 1.61 1.52 1.42 1.30 1.25 1.41 1.41 1.35 1.35 1.44 1.50 1.54 1.57 1.59 1.65 1.77 1.82 1.87 1.90 1.95 1.95 1.98 1.95 1.97 1.95 1.99 1.95 1.96 1.96 1.94 1.93 1.91 1.91 1.90 1.88 1.87 1.86 1.85 1.83 1.82 1.80 1.80 1.80 1.77 1.72 1.66 1.59 1.52 1.44 1.34 1.28 1.30 1.37 1.41 1.49 1.54 1.56 1.56 1.53 1.52 1.53 1.56 1.55 1.54 1.52 1.52 1.53 1.52 1.62 1.65 1.57 1.74 1.76 1.71 1.67 1.72 1.70 1.67 1.67 1.68 1.67 1.62
1.67 1.66 1.64 1.66 1.53 1.41 1.31 1.32 1.42 1.49 1.48 1.44 1.45 1.48 1.52 1.55 1.55 1.58 1.65 1.72 1.78 1.83 1.88 1.91 1.92 1.97 1.96 1.96 1.99 1.99 1.97 1.97 1.97 1.98 1.98 1.97 1.93 1.89 1.87 1.84 1.83 1.83 1.85 1.86 1.86 1.86 1.86 1.86 1.84 1.81 1.75 1.69 1.59 1.51 1.45 1.39 1.40 1.39 1.47 1.52 1.54 1.53 1.50 1.51 1.51 1.49 1.49 1.49 1.48 1.48 1.53 1.52 1.58 1.66 1.75 1.80 1.67 1.62 1.68 1.68 1.66 1.64 1.66 1.71 1.55
1.67 1.66 1.67 1.59 1.59 1.54 1.43 1.44 1.53 1.59 1.56 1.54 1.53 1.48 1.43 1.46 1.49 1.51 1.52 1.57 1.66 1.73 1.79 1.84 1.88 1.90 1.93 1.95 1.96 1.98 1.95 1.90 1.88 1.87 1.88 1.91 1.95 1.92 1.89 1.86 1.84 1.84 1.84 1.85 1.88 1.89 1.90 1.92 1.92 1.91 1.92 1.90 1.87 1.81 1.72 1.65 1.54 1.46 1.46 1.49 1.52 1.53 1.52 1.51 1.50 1.48 1.46 1.45 1.45 1.50 1.50 1.50 1.54 1.58 1.58 1.53 1.57 1.51 1.64 1.67 1.59 1.67 1.64 1.62 1.65
1.63 1.64 1.62 1.64 1.66 1.73 1.67 1.59 1.62 1.66 1.62 1.54 1.52 1.49 1.44 1.41 1.43 1.48 1.52 1.56 1.60 1.66 1.70 1.77 1.82 1.83 1.84 1.86 1.89 1.89 1.87 1.85 1.84 1.83 1.85 1.87 1.88 1.86 1.86 1.88 1.89 1.89 1.87 1.87 1.90 1.92 1.93 1.95 1.97 1.97 1.95 1.95 1.93 1.89 1.84 1.79 1.75 1.68 1.61 1.61 1.55 1.51 1.52 1.52 1.49 1.47 1.45 1.42 1.39 1.39 1.41 1.41 1.47 1.56 1.54 1.58 1.67 1.66 1.57 1.60 1.61 1.61 1.61 1.55 1.67
1.52 1.57 1.59 1.72 1.74 1.69 1.67 1.68 1.69 1.71 1.70 1.64 1.56 1.51 1.47 1.45 1.43 1.43 1.46 1.49 1.52 1.58 1.63 1.64 1.68 1.74 1.72 1.75 1.78 1.78 1.78 1.76 1.75 1.76 1.77 1.79 1.83 1.84 1.83 1.85 1.87 1.85 1.83 1.82 1.81 1.85 1.90 1.93 1.95 1.95 1.95 1.93 1.92 1.89 1.88 1.86 1.83 1.80 1.75 1.70 1.71 1.66 1.55 1.49 1.47 1.50 1.46 1.42 1.44 1.40 1.35 1.37 1.45 1.53 1.58 1.64 1.66 1.62 1.58 1.55 1.58 1.66 1.55 1.49 1.45
1.48 1.47 1.50 1.55 1.67 1.74 1.76 1.73 1.70 1.71 1.73 1.68 1.63 1.58 1.52 1.49 1.46 1.44 1.43 1.41 1.44 1.49 1.50 1.54 1.59 1.61 1.63 1.67 1.67 1.69 1.72 1.75 1.74 1.74 1.75 1.75 1.78 1.81 1.84 1.83 1.83 1.83 1.83 1.81 1.80 1.79 1.79 1.82 1.85 1.88 1.89 1.89 1.89 1.90 1.89 1.86 1.84 1.83 1.81 1.79 1.76 1.74 1.69 1.60 1.56 1.53 1.49 1.43 1.41 1.42 1.40 1.32 1.37 1.51 1.52 1.55 1.64 1.69 1.63 1.57 1.58 1.59 1.57 1.47 1.50
1.52 1.52 1.57 1.61 1.62 1.65 1.71 1.70 1.73 1.68 1.71 1.70 1.70 1.66 1.60 1.53 1.49 1.47 1.42 1.43 1.43 1.39 1.41 1.45 1.49 1.54 1.55 1.54 1.54 1.58 1.60 1.67 1.69 1.72 1.74 1.76 1.80 1.83 1.84 1.86 1.82 1.81 1.80 1.79 1.79 1.77 1.77 1.77 1.79 1.84 1.87 1.88 1.88 1.86 1.87 1.90 1.92 1.90 1.87 1.83 1.79 1.77 1.76 1.73 1.67 1.58 1.56 1.55 1.47 1.44 1.44 1.42 1.38 1.40 1.53 1.57 1.65 1.54 1.58 1.59 1.58 1.61 1.57 1.50 1.58
1.48 1.49 1.57 1.64 1.68 1.66 1.64 1.65 1.65 1.67 1.70 1.74 1.74 1.73 1.65 1.53 1.52 1.52 1.50 1.48 1.42 1.40 1.41 1.43 1.49 1.50 1.50 1.51 1.52 1.54 1.55 1.60 1.61 1.64 1.67 1.70 1.73 1.76 1.75 1.74 1.76 1.76 1.74 1.75 1.74 1.73 1.73 1.69 1.69 1.70 1.76 1.78 1.79 1.79 1.81 1.86 1.89 1.90 1.85 1.86 1.84 1.81 1.78 1.75 1.74 1.72 1.65 1.55 1.50 1.44 1.51 1.58 1.47 1.46 1.56 1.65 1.60 1.49 1.52 1.61 1.67 1.62 1.58 1.52 1.59
1.58 1.51 1.43 1.56 1.65 1.68 1.63 1.59 1.56 1.63 1.71 1.73 1.73 1.75 1.66 1.59 1.50 1.49 1.51 1.49 1.47 1.44 1.48 1.49 1.53 1.54 1.53 1.53 1.52 1.51 1.55 1.59 1.59 1.59 1.62 1.64 1.65 1.67 1.68 1.68 1.68 1.69 1.71 1.73 1.73 1.73 1.73 1.72 1.71 1.71 1.75 1.77 1.80 1.82 1.82 1.85 1.88 1.88 1.86 1.83 1.82 1.81 1.79 1.78 1.77 1.75 1.74 1.71 1.60 1.52 1.52 1.59 1.60 1.60 1.62 1.63 1.64 1.62 1.59 1.66 1.70 1.69 1.69 1.77 1.76
1.55 1.58 1.50 1.44 1.47 1.61 1.63 1.57 1.54 1.53 1.62 1.59 1.49 1.59 1.69 1.66 1.58 1.56 1.53 1.53 1.55 1.56 1.58 1.57 1.54 1.55 1.58 1.58 1.56 1.54 1.60 1.62 1.61 1.61 1.62 1.63 1.66 1.68 1.68 1.66 1.67 1.69 1.71 1.74 1.75 1.76 1.76 1.75 1.74 1.73 1.74 1.76 1.81 1.82 1.81 1.81 1.76 1.74 1.76 1.77 1.77 1.80 1.79 1.83 1.88 1.90 1.87 1.82 1.77 1.71 1.66 1.59 1.59 1.62 1.68 1.69 1.68 1.72 1.74 1.69 1.68 1.73 1.69 1.59 1.48
1.47 1.49 1.51 1.54 1.53 1.47 1.54 1.58 1.60 1.57 1.52 1.51 1.51 1.58 1.65 1.70 1.68 1.65 1.58 1.59 1.54 1.51 1.54 1.56 1.57 1.56 1.57 1.59 1.57 1.56 1.58 1.60 1.59 1.59 1.59 1.62 1.64 1.64 1.62 1.60 1.57 1.56 1.56 1.61 1.66 1.70 1.70 1.69 1.67 1.64 1.63 1.62 1.65 1.66 1.65 1.64 1.60 1.57 1.56 1.58 1.63 1.65 1.67 1.83 1.88 1.86 1.88 1.89 1.86 1.84 1.83 1.78 1.72 1.64 1.63 1.69 1.71 1.67 1.69 1.58 1.47 1.65 1.52 1.41 1.43
1.44 1.47 1.47 1.51 1.56 1.62 1.61 1.61 1.61 1.55 1.57 1.51 1.53 1.59 1.65 1.64 1.59 1.68 1.60 1.60 1.55 1.53 1.54 1.55 1.56 1.54 1.54 1.56 1.57 1.54 1.54 1.60 1.59 1.59 1.59 1.60 1.62 1.59 1.56 1.49 1.42 1.40 1.39 1.42 1.45 1.48 1.50 1.51 1.51 1.51 1.51 1.53 1.59 1.62 1.64 1.65 1.60 1.58 1.57 1.54 1.53 1.51 1.53 1.62 1.69 1.79 1.88 1.89 1.89 1.86 1.85 1.85 1.83 1.80 1.74 1.69 1.69 1.69 1.63 1.49 1.53 1.62 1.55 1.46 1.31
1.23 1.35 1.43 1.45 1.54 1.62 1.66 1.68 1.64 1.55 1.54 1.56 1.58 1.61 1.63 1.66 1.73 1.78 1.74 1.66 1.60 1.56 1.53 1.51 1.52 1.54 1.54 1.51 1.52 1.51 1.53 1.59 1.60 1.59 1.58 1.57 1.55 1.53 1.48 1.43 1.38 1.37 1.35 1.36 1.42 1.45 1.46 1.48 1.47 1.48 1.48 1.49 1.53 1.58 1.61 1.64 1.60 1.58 1.56 1.54 1.50 1.49 1.54 1.63 1.64 1.62 1.70 1.79 1.87 1.92 1.87 1.86 1.88 1.88 1.87 1.82 1.75 1.70 1.67 1.62 1.63 1.57 1.49 1.47 1.49
1.02 1.19 1.33 1.40 1.46 1.52 1.61 1.62 1.66 1.67 1.61 1.54 1.53 1.58 1.64 1.63 1.65 1.66 1.74 1.72 1.64 1.61 1.56 1.54 1.48 1.49 1.55 1.55 1.53 1.52 1.49 1.53 1.57 1.53 1.53 1.52 1.50 1.47 1.43 1.35 1.31 1.31 1.31 1.30 1.31 1.36 1.39 1.41 1.43 1.42 1.39 1.41 1.45 1.48 1.51 1.55 1.54 1.55 1.57 1.54 1.51 1.50 1.68 1.75 1.76 1.73 1.71 1.73 1.73 1.86 1.94 1.96 1.96 1.94 1.93 1.91 1.87 1.83 1.75 1.72 1.69 1.66 1.59 1.53 1.57
0.97 1.03 1.15 1.29 1.37 1.45 1.59 1.59 1.57 1.63 1.67 1.67 1.65 1.63 1.61 1.61 1.64 1.65 1.66 1.68 1.68 1.63 1.54 1.53 1.51 1.49 1.52 1.56 1.54 1.56 1.53 1.47 1.52 1.52 1.52 1.50 1.49 1.46 1.42 1.37 1.35 1.32 1.29 1.27 1.27 1.27 1.29 1.32 1.36 1.39 1.41 1.42 1.44 1.45 1.47 1.49 1.52 1.55 1.60 1.60 1.63 1.72 1.84 1.81 1.82 1.83 1.83 1.77 1.81 1.83 1.81 1.90 1.96 1.94 1.90 1.96 1.94 1.95 1.88 1.79 1.74 1.74 1.69 1.59 1.55
0.93 0.97 1.03 1.10 1.25 1.38 1.51 1.55 1.57 1.55 1.57 1.59 1.58 1.56 1.64 1.68 1.64 1.60 1.61 1.62 1.61 1.59 1.56 1.52 1.49 1.49 1.49 1.49 1.48 1.46 1.47 1.43 1.45 1.51 1.49 1.49 1.50 1.49 1.44 1.38 1.37 1.33 1.27 1.24 1.25 1.25 1.25 1.29 1.32 1.40 1.45 1.45 1.44 1.44 1.44 1.45 1.51 1.59 1.63 1.69 1.74 1.81 1.84 1.88 1.87 1.85 1.84 1.83 1.82 1.78 1.74 1.75 1.76 1.80 1.87 1.91 1.92 1.93 1.97 1.84 1.76 1.72 1.75 1.73 1.66
0.92 0.93 0.96 1.00 1.07 1.24 1.46 1.54 1.54 1.54 1.52 1.55 1.55 1.53 1.56 1.58 1.64 1.64 1.60 1.55 1.52 1.55 1.60 1.62 1.58 1.56 1.56 1.52 1.49 1.47 1.46 1.47 1.44 1.47 1.49 1.48 1.46 1.44 1.42 1.39 1.39 1.37 1.27 1.20 1.20 1.21 1.27 1.31 1.36 1.40 1.42 1.44 1.45 1.45 1.45 1.47 1.52 1.55 1.60 1.67 1.73 1.79 1.87 1.89 1.88 1.84 1.81 1.81 1.80 1.75 1.72 1.72 1.70 1.74 1.90 1.95 1.89 1.91 2.03 2.01 1.88 1.76 1.72 1.76 1.81
0.98 0.93 0.91 0.92 0.97 1.07 1.29 1.46 1.53 1.54 1.53 1.52 1.53 1.51 1.52 1.55 1.58 1.61 1.60 1.60 1.58 1.54 1.60 1.62 1.53 1.43 1.51 1.55 1.50 1.46 1.46 1.45 1.46 1.44 1.45 1.44 1.44 1.42 1.41 1.39 1.38 1.36 1.34 1.27 1.26 1.25 1.24 1.27 1.31 1.35 1.36 1.37 1.38 1.40 1.43 1.46 1.47 1.49 1.53 1.61 1.70 1.77 1.80 1.81 1.85 1.84 1.81 1.76 1.74 1.73 1.74 1.80 1.81 1.76 1.79 1.98 2.02 1.98 2.01 2.02 1.93 1.86 1.74 1.71 1.79
0.99 0.98 0.94 0.91 0.91 0.97 1.13 1.30 1.43 1.52 1.55 1.53 1.48 1.50 1.51 1.55 1.54 1.60 1.59 1.55 1.60 1.55 1.56 1.55 1.53 1.52 1.54 1.54 1.54 1.49 1.44 1.43 1.42 1.43 1.40 1.39 1.38 1.38 1.37 1.36 1.36 1.37 1.31 1.31 1.30 1.27 1.26 1.26 1.26 1.26 1.27 1.28 1.30 1.33 1.36 1.38 1.41 1.43 1.46 1.53 1.63 1.69 1.70 1.71 1.74 1.78 1.77 1.74 1.72 1.75 1.77 1.80 1.85 1.86 1.88 1.91 1.94 2.08 2.13 2.15 1.97 1.93 1.92 1.86 1.95
0.97 0.97 0.97 0.95 0.91 0.92 0.97 1.15 1.31 1.41 1.49 1.55 1.53 1.49 1.47 1.50 1.52 1.59 1.65 1.58 1.58 1.57 1.53 1.50 1.51 1.51 1.51 1.51 1.52 1.57 1.57 1.51 1.43 1.41 1.40 1.32 1.28 1.28 1.29 1.31 1.32 1.34 1.34 1.33 1.32 1.30 1.27 1.26 1.23 1.20 1.18 1.18 1.21 1.24 1.26 1.30 1.35 1.38 1.43 1.51 1.58 1.62 1.66 1.68 1.70 1.70 1.69 1.75 1.77 1.75 1.78 1.86 1.91 1.98 1.98 1.99 2.01 1.92 1.97 1.97 1.98 1.96 1.96 1.91 1.84
0.94 0.94 0.95 0.97 0.97 0.94 0.91 1.01 1.18 1.29 1.35 1.43 1.49 1.50 1.48 1.46 1.48 1.50 1.52 1.53 1.51 1.49 1.50 1.50 1.50 1.49 1.53 1.49 1.50 1.53 1.59 1.62 1.60 1.56 1.51 1.45 1.40 1.33 1.28 1.29 1.31 1.32 1.31 1.31 1.31 1.30 1.29 1.28 1.24 1.20 1.17 1.16 1.18 1.22 1.24 1.26 1.26 1.30 1.40 1.51 1.62 1.72 1.79 1.82 1.84 1.82 1.77 1.76 1.80 1.85 1.89 1.96 2.03 2.01 1.95 2.02 1.96 2.07 2.05 2.05 1.97 1.91 1.97 1.88 1.76
0.91 0.91 0.92 0.95 0.97 0.97 0.93 0.93 1.00 1.13 1.23 1.28 1.31 1.40 1.45 1.45 1.39 1.39 1.47 1.50 1.45 1.42 1.43 1.44 1.47 1.46 1.46 1.46 1.46 1.46 1.48 1.55 1.60 1.60 1.57 1.49 1.43 1.44 1.45 1.41 1.32 1.28 1.29 1.34 1.38 1.40 1.38 1.35 1.29 1.25 1.21 1.16 1.16 1.21 1.24 1.26 1.26 1.29 1.38 1.52 1.64 1.71 1.72 1.78 1.87 1.91 1.89 1.88 1.88 1.94 1.95 1.94 1.93 1.95 1.96 1.92 1.98 1.99 2.00 1.98 1.94 1.85 1.88 1.88 1.76
0.99 0.95 0.93 0.93 0.95 0.98 0.98 0.94 0.93 1.03 1.18 1.22 1.27 1.32 1.38 1.40 1.38 1.34 1.44 1.48 1.49 1.48 1.45 1.45 1.48 1.52 1.48 1.44 1.41 1.39 1.39 1.39 1.50 1.65 1.68 1.65 1.57 1.49 1.50 1.55 1.61 1.63 1.64 1.59 1.50 1.45 1.38 1.30 1.24 1.21 1.17 1.13 1.13 1.15 1.18 1.18 1.21 1.27 1.34 1.42 1.52 1.59 1.64 1.69 1.70 1.77 1.89 1.93 1.87 1.87 1.85 1.92 1.89 1.96 1.93 1.96 1.92 1.93 1.99 1.99 2.00 1.93 1.97 1.94 1.81
1.00 0.99 0.98 0.94 0.92 0.94 0.97 0.98 0.96 0.97 1.10 1.16 1.18 1.23 1.32 1.34 1.37 1.33 1.28 1.35 1.34 1.39 1.45 1.45 1.53 1.59 1.53 1.54 1.53 1.45 1.43 1.50 1.59 1.58 1.56 1.56 1.59 1.58 1.54 1.52 1.52 1.53 1.53 1.50 1.47 1.38 1.31 1.23 1.18 1.14 1.11 1.11 1.10 1.11 1.11 1.10 1.10 1.13 1.22 1.34 1.43 1.49 1.59 1.70 1.78 1.82 1.86 1.84 1.83 1.84 1.90 1.96 1.94 1.97 2.03 1.96 1.94 1.97 2.01 1.99 1.93 1.99 1.91 1.89 1.83
1.02 1.00 1.00 0.97 0.95 0.94 0.95 0.98 1.01 1.00 0.97 1.01 1.07 1.10 1.13 1.25 1.31 1.34 1.36 1.30 1.28 1.28 1.29 1.34 1.42 1.50 1.52 1.48 1.54 1.56 1.54 1.54 1.54 1.58 1.59 1.60 1.61 1.63 1.65 1.64 1.61 1.59 1.58 1.55 1.48 1.40 1.34 1.26 1.19 1.17 1.15 1.13 1.12 1.12 1.12 1.08 1.07 1.09 1.15 1.23 1.32 1.38 1.47 1.58 1.75 1.84 1.81 1.79 1.82 1.83 1.82 1.86 1.93 1.99 2.00 1.98 2.00 1.99 2.01 2.05 2.04 2.00 1.94 1.91 1.85
1.05 1.04 1.04 1.03 1.01 0.98 0.98 0.97 0.99 1.00 1.00 0.99 1.00 1.00 0.99 1.02 1.12 1.26 1.27 1.29 1.30 1.26 1.24 1.23 1.26 1.31 1.39 1.42 1.42 1.43 1.46 1.47 1.49 1.50 1.53 1.57 1.60 1.63 1.66 1.68 1.68 1.67 1.64 1.61 1.48 1.42 1.41 1.32 1.23 1.18 1.18 1.14 1.13 1.14 1.14 1.10 1.08 1.08 1.12 1.16 1.20 1.30 1.37 1.45 1.60 1.67 1.70 1.76 1.81 1.87 1.93 1.94 1.96 2.04 2.09 2.07 1.99 1.97 1.97 1.98 2.00 1.99 1.98 1.98 1.91
1.07 1.07 1.06 1.06 1.04 1.02 1.00 0.98 0.98 0.99 1.00 1.00 1.00 1.01 0.96 0.92 0.90 0.98 1.19 1.28 1.27 1.25 1.24 1.23 1.22 1.23 1.26 1.31 1.36 1.36 1.38 1.43 1.45 1.47 1.50 1.53 1.57 1.60 1.64 1.66 1.67 1.67 1.65 1.56 1.48 1.44 1.43 1.38 1.30 1.24 1.21 1.19 1.19 1.17 1.17 1.17 1.13 1.10 1.11 1.12 1.13 1.21 1.33 1.42 1.50 1.52 1.60 1.69 1.75 1.86 1.92 1.95 1.96 2.01 2.09 2.10 2.02 1.97 1.98 1.96 1.99 1.98 1.97 1.93 1.89
1.13 1.11 1.08 1.07 1.06 1.05 1.04 1.04 1.03 1.02 1.05 1.05 1.04 1.04 1.03 1.00 0.95 0.93 0.93 1.00 1.12 1.22 1.27 1.27 1.25 1.23 1.20 1.22 1.28 1.33 1.36 1.38 1.41 1.42 1.44 1.48 1.52 1.55 1.59 1.61 1.64 1.65 1.61 1.55 1.53 1.48 1.47 1.43 1.38 1.32 1.28 1.26 1.23 1.21 1.18 1.18 1.17 1.15 1.13 1.12 1.15 1.22 1.31 1.40 1.40 1.42 1.49 1.59 1.67 1.76 1.92 2.03 1.96 1.89 1.93 2.05 2.10 2.04 1.97 1.95 1.94 1.89 1.86 1.85 1.83
1.18 1.17 1.14 1.11 1.08 1.06 1.06 1.05 1.05 1.05 1.05 1.05 1.06 1.06 1.05 1.05 1.03 0.98 0.93 0.89 0.88 0.90 0.97 1.14 1.25 1.25 1.19 1.19 1.22 1.28 1.32 1.35 1.38 1.41 1.43 1.46 1.49 1.51 1.54 1.53 1.49 1.50 1.52 1.54 1.53 1.52 1.50 1.48 1.45 1.41 1.36 1.31 1.28 1.27 1.22 1.21 1.20 1.18 1.16 1.15 1.16 1.19 1.23 1.28 1.31 1.37 1.42 1.51 1.59 1.65 1.75 1.93 2.06 2.04 1.96 1.95 1.96 1.91 1.89 1.87 1.84 1.83 1.78 1.77 1.79
1.19 1.18 1.17 1.16 1.14 1.14 1.14 1.13 1.12 1.10 1.07 1.07 1.08 1.06 1.06 1.04 1.02 1.01 0.99 0.95 0.92 0.90 0.91 0.97 1.05 1.18 1.22 1.21 1.24 1.25 1.27 1.31 1.34 1.36 1.40 1.44 1.46 1.47 1.41 1.42 1.45 1.46 1.47 1.51 1.52 1.54 1.56 1.54 1.53 1.49 1.45 1.38 1.34 1.31 1.30 1.26 1.25 1.23 1.22 1.22 1.21 1.22 1.24 1.25 1.28 1.31 1.37 1.43 1.49 1.58 1.64 1.68 1.73 1.78 1.85 1.89 1.90 1.90 1.88 1.83 1.79 1.74 1.72 1.72 1.74
1.20 1.20 1.19 1.19 1.19 1.18 1.17 1.16 1.15 1.14 1.13 1.11 1.08 1.06 1.06 1.05 1.04 1.02 1.01 1.00 0.96 0.95 0.94 0.95 0.96 1.03 1.15 1.18 1.25 1.27 1.28 1.27 1.29 1.32 1.35 1.37 1.39 1.39 1.39 1.42 1.45 1.48 1.48 1.49 1.54 1.57 1.56 1.56 1.55 1.53 1.51 1.45 1.38 1.36 1.35 1.32 1.31 1.30 1.27 1.25 1.25 1.22 1.23 1.26 1.29 1.31 1.33 1.36 1.40 1.46 1.51 1.58 1.63 1.66 1.68 1.67 1.70 1.73 1.75 1.76 1.76 1.74 1.73 1.73 1.74
1.23 1.21 1.20 1.20 1.21 1.21 1.20 1.17 1.16 1.14 1.13 1.10 1.08 1.06 1.04 1.04 1.04 1.04 1.02 1.01 1.01 0.99 0.96 0.95 0.93 0.91 0.97 1.11 1.27 1.28 1.26 1.26 1.25 1.24 1.26 1.27 1.27 1.27 1.31 1.35 1.41 1.44 1.48 1.53 1.56 1.55 1.57 1.62 1.63 1.60 1.58 1.56 1.49 1.42 1.39 1.37 1.36 1.34 1.33 1.31 1.30 1.28 1.26 1.24 1.24 1.25 1.29 1.32 1.37 1.44 1.45 1.48 1.53 1.59 1.61 1.59 1.59 1.64 1.70 1.75 1.76 1.74 1.75 1.76 1.77
1.25 1.24 1.24 1.22 1.20 1.17 1.15 1.12 1.10 1.10 1.10 1.10 1.10 1.09 1.08 1.08 1.08 1.07 1.06 1.05 1.04 1.01 0.99 0.96 0.92 0.93 1.00 1.13 1.21 1.35 1.25 1.17 1.15 1.15 1.18 1.20 1.23 1.25 1.27 1.29 1.32 1.37 1.44 1.50 1.55 1.55 1.54 1.55 1.60 1.63 1.62 1.60 1.56 1.51 1.46 1.42 1.39 1.35 1.35 1.34 1.32 1.31 1.29 1.25 1.22 1.23 1.25 1.26 1.30 1.39 1.45 1.49 1.52 1.53 1.53 1.53 1.52 1.56 1.61 1.68 1.71 1.71 1.69 1.67 1.68
1.23 1.25 1.24 1.27 1.25 1.24 1.21 1.18 1.18 1.15 1.11 1.08 1.07 1.09 1.09 1.09 1.08 1.08 1.08 1.06 1.05 1.03 1.01 0.99 1.00 1.06 1.16 1.24 1.25 1.27 1.15 1.14 1.16 1.18 1.19 1.21 1.24 1.26 1.25 1.24 1.26 1.29 1.34 1.41 1.48 1.52 1.53 1.53 1.56 1.57 1.60 1.62 1.61 1.57 1.54 1.49 1.45 1.43 1.41 1.37 1.35 1.32 1.31 1.30 1.27 1.23 1.19 1.21 1.23 1.28 1.34 1.41 1.49 1.53 1.52 1.50 1.49 1.50 1.51 1.53 1.59 1.64 1.67 1.69 1.71
1.26 1.25 1.24 1.25 1.23 1.23 1.23 1.20 1.16 1.15 1.18 1.19 1.18 1.14 1.10 1.12 1.13 1.13 1.12 1.10 1.11 1.10 1.11 1.11 1.10 1.15 1.21 1.23 1.23 1.21 1.12 1.06 1.07 1.09 1.12 1.15 1.16 1.18 1.24 1.27 1.27 1.29 1.33 1.38 1.44 1.49 1.52 1.53 1.53 1.54 1.56 1.58 1.61 1.61 1.58 1.55 1.51 1.48 1.45 1.43 1.40 1.37 1.36 1.36 1.34 1.32 1.29 1.23 1.19 1.20 1.25 1.32 1.38 1.42 1.42 1.47 1.53 1.52 1.52 1.54 1.55 1.57 1.58 1.61 1.64
1.32 1.30 1.26 1.25 1.31 1.25 1.18 1.17 1.19 1.18 1.19 1.18 1.16 1.16 1.15 1.14 1.15 1.14 1.13 1.12 1.11 1.11 1.12 1.13 1.11 1.12 1.16 1.18 1.17 1.16 1.11 1.06 1.04 1.02 1.02 1.05 1.07 1.10 1.14 1.18 1.23 1.28 1.33 1.38 1.44 1.48 1.52 1.54 1.55 1.55 1.55 1.56 1.57 1.58 1.58 1.56 1.54 1.51 1.48 1.45 1.43 1.43 1.41 1.39 1.37 1.35 1.31 1.29 1.26 1.23 1.21 1.24 1.30 1.35 1.39 1.43 1.43 1.43 1.44 1.44 1.45 1.46 1.45 1.45 1.46
1.30 1.26 1.26 1.25 1.28 1.29 1.26 1.20 1.20 1.21 1.20 1.19 1.21 1.22 1.20 1.18 1.13 1.14 1.13 1.13 1.13 1.13 1.13 1.09 1.04 1.04 1.08 1.14 1.14 1.14 1.11 1.07 1.02 1.00 0.98 0.98 1.00 1.02 1.05 1.08 1.14 1.20 1.27 1.32 1.39 1.45 1.50 1.55 1.57 1.59 1.58 1.57 1.57 1.56 1.55 1.56 1.59 1.58 1.55 1.50 1.46 1.43 1.43 1.44 1.43 1.40 1.37 1.32 1.27 1.26 1.25 1.25 1.26 1.27 1.29 1.32 1.34 1.36 1.36 1.35 1.35 1.36 1.36 1.36 1.36
1.32 1.30 1.30 1.31 1.26 1.26 1.27 1.24 1.21 1.21 1.20 1.21 1.19 1.17 1.15 1.17 1.16 1.13 1.11 1.11 1.14 1.15 1.14 1.11 1.10 1.09 1.12 1.19 1.17 1.12 1.11 1.09 1.05 1.04 1.03 1.03 1.02 1.03 1.04 1.06 1.10 1.14 1.20 1.26 1.32 1.39 1.44 1.47 1.51 1.56 1.61 1.62 1.63 1.62 1.60 1.61 1.63 1.61 1.60 1.57 1.53 1.48 1.45 1.45 1.45 1.45 1.43 1.39 1.35 1.31 1.27 1.25 1.24 1.25 1.27 1.28 1.28 1.25 1.27 1.29 1.29 1.29 1.30 1.31 1.33
1.40 1.37 1.36 1.32 1.20 1.26 1.35 1.33 1.28 1.22 1.20 1.24 1.20 1.20 1.19 1.17 1.16 1.12 1.13 1.10 1.13 1.17 1.16 1.13 1.13 1.16 1.15 1.13 1.13 1.13 1.13 1.10 1.09 1.08 1.07 1.05 1.04 1.03 1.03 1.05 1.08 1.10 1.12 1.16 1.23 1.28 1.28 1.31 1.37 1.41 1.44 1.50 1.58 1.61 1.62 1.63 1.64 1.65 1.67 1.65 1.62 1.58 1.53 1.49 1.50 1.53 1.54 1.49 1.44 1.40 1.36 1.31 1.29 1.27 1.25 1.26 1.25 1.24 1.22 1.23 1.24 1.25 1.25 1.26 1.26
1.34 1.34 1.32 1.27 1.25 1.30 1.31 1.24 1.31 1.24 1.22 1.19 1.20 1.20 1.17 1.23 1.27 1.23 1.23 1.26 1.22 1.16 1.16 1.17 1.18 1.17 1.15 1.13 1.15 1.15 1.13 1.13 1.12 1.12 1.10 1.09 1.08 1.08 1.08 1.09 1.09 1.10 1.12 1.14 1.18 1.20 1.23 1.26 1.30 1.33 1.36 1.40 1.46 1.51 1.57 1.60 1.61 1.61 1.62 1.63 1.62 1.61 1.63 1.61 1.59 1.56 1.55 1.54 1.52 1.49 1.45 1.42 1.37 1.34 1.30 1.28 1.27 1.27 1.26 1.26 1.28 1.28 1.26 1.25 1.26
1.24 1.30 1.33 1.32 1.29 1.29 1.27 1.31 1.24 1.17 1.23 1.23 1.20 1.29 1.22 1.24 1.22 1.17 1.21 1.22 1.33 1.25 1.20 1.20 1.20 1.18 1.17 1.18 1.17 1.18 1.19 1.15 1.12 1.11 1.12 1.14 1.15 1.14 1.14 1.14 1.14 1.12 1.12 1.14 1.16 1.19 1.22 1.24 1.26 1.28 1.31 1.34 1.39 1.44 1.48 1.52 1.55 1.56 1.57 1.58 1.61 1.64 1.65 1.65 1.64 1.62 1.60 1.59 1.58 1.55 1.52 1.47 1.41 1.37 1.35 1.32 1.30 1.31 1.34 1.33 1.35 1.35 1.38 1.37 1.35
1.09 1.13 1.19 1.25 1.29 1.29 1.30 1.30 1.29 1.27 1.25 1.24 1.22 1.22 1.30 1.26 1.19 1.25 1.23 1.23 1.20 1.24 1.28 1.27 1.26 1.19 1.22 1.21 1.21 1.20 1.20 1.19 1.18 1.17 1.17 1.18 1.19 1.20 1.21 1.19 1.15 1.12 1.10 1.10 1.11 1.13 1.17 1.21 1.24 1.28 1.32 1.35 1.36 1.38 1.42 1.46 1.50 1.54 1.55 1.56 1.57 1.61 1.63 1.64 1.64 1.64 1.66 1.66 1.65 1.62 1.59 1.53 1.47 1.40 1.36 1.37 1.34 1.33 1.31 1.32 1.34 1.35 1.37 1.40 1.38
1.01 1.00 1.01 1.05 1.09 1.14 1.18 1.23 1.26 1.26 1.25 1.25 1.24 1.24 1.24 1.24 1.24 1.26 1.24 1.25 1.24 1.20 1.17 1.29 1.43 1.44 1.32 1.27 1.26 1.27 1.31 1.33 1.26 1.23 1.23 1.20 1.20 1.20 1.21 1.21 1.20 1.19 1.17 1.17 1.17 1.17 1.18 1.18 1.18 1.20 1.24 1.29 1.34 1.37 1.38 1.40 1.43 1.47 1.51 1.51 1.52 1.55 1.59 1.60 1.59 1.59 1.65 1.68 1.69 1.68 1.66 1.64 1.57 1.49 1.43 1.37 1.34 1.34 1.33 1.33 1.34 1.35 1.35 1.34 1.34
1.02 1.00 0.98 0.97 0.96 0.96 0.99 1.04 1.08 1.12 1.15 1.17 1.19 1.20 1.22 1.23 1.24 1.24 1.26 1.26 1.22 1.20 1.21 1.24 1.29 1.33 1.35 1.30 1.26 1.25 1.28 1.29 1.29 1.29 1.29 1.26 1.24 1.24 1.25 1.26 1.26 1.25 1.23 1.20 1.20 1.20 1.21 1.22 1.21 1.20 1.21 1.25 1.27 1.30 1.33 1.36 1.37 1.40 1.43 1.47 1.50 1.53 1.56 1.58 1.59 1.60 1.62 1.66 1.68 1.66 1.63 1.61 1.60 1.57 1.53 1.48 1.43 1.39 1.36 1.35 1.37 1.39 1.38 1.36 1.35
1.00 1.00 0.97 0.96 0.95 0.95 0.95 0.94 0.94 0.96 0.99 1.02 1.06 1.08 1.12 1.14 1.17 1.20 1.20 1.21 1.23 1.23 1.21 1.20 1.21 1.25 1.27 1.27 1.26 1.23 1.20 1.21 1.21 1.21 1.20 1.19 1.17 1.16 1.15 1.15 1.15 1.16 1.17 1.19 1.21 1.24 1.26 1.26 1.23 1.23 1.24 1.25 1.28 1.29 1.30 1.31 1.32 1.35 1.40 1.43 1.46 1.50 1.53 1.55 1.57 1.62 1.66 1.66 1.67 1.66 1.63 1.56 1.55 1.52 1.51 1.50 1.51 1.49 1.47 1.45 1.43 1.40 1.38 1.36 1.34
Wind_Speed
9 9 9 9 9 9 9 9 10 10 10 11 13 14 15 16 16 17 17 17 17 17 17 17 16 16 17 18 19 20 20 21 21 21 21 21 21 21 21 21 21 21 21 21 20 20 20 19 19 19 19 19 19 18 18 18 18 18 18 17 17 17 17 17 17 17 16 16 16 15 14 14 14 14 14 14 14 14 14 14 14 14 13 13 13
9 9 9 8 8 8 9 9 9 10 10 10 12 13 15 15 16 16 17 17 17 18 18 17 17 16 16 17 18 19 20 21 21 21 21 22 22 21 21 21 22 21 21 21 21 21 20 20 20 20 19 20 20 20 19 19 19 19 19 19 19 18 18 18 18 18 17 17 17 17 16 15 15 15 15 16 16 15 15 15 15 15 15 14 14
9 9 8 8 8 8 8 9 9 9 9 9 10 11 12 14 15 16 16 17 18 18 19 18 18 17 17 18 18 19 20 20 21 21 22 22 22 22 21 22 22 22 22 22 22 22 21 21 21 21 21 21 21 21 20 20 20 20 20 20 20 20 19 19 19 19 19 18 17 18 17 17 17 17 16 17 17 16 16 16 16 16 16 16 15
9 9 9 8 8 8 8 9 9 9 9 9 9 9 9 12 14 15 16 17 17 19 19 19 19 19 18 19 19 20 20 20 21 22 22 22 22 22 22 22 22 22 22 22 22 23 22 22 22 22 22 22 22 21 21 21 21 21 21 21 21 21 21 20 20 20 20 19 19 19 18 18 18 18 17 17 17 17 17 17 17 17 17 17 17
9 9 9 8 8 8 8 9 9 9 9 9 9 9 9 9 11 13 15 16 17 18 19 20 20 20 19 20 20 20 21 21 21 22 22 22 22 23 22 22 22 22 23 23 23 23 23 23 23 23 23 23 23 22 22 22 22 22 22 22 22 22 22 22 22 21 21 21 21 20 20 19 19 19 19 18 18 18 18 19 19 18 18 18 18
10 10 9 8 8 8 8 9 9 10 10 10 10 9 9 9 9 11 14 16 17 17 18 19 20 20 20 20 20 20 21 21 21 22 22 22 22 23 23 23 23 23 23 23 24 24 24 24 24 24 24 24 23 23 24 24 23 23 23 23 23 23 23 23 23 23 22 22 22 22 22 21 21 21 20 20 20 20 20 20 20 20 19 19 19
11 11 10 9 8 8 8 9 9 10 10 10 9 9 9 9 9 10 11 13 15 17 18 19 19 20 20 20 20 20 21 21 22 22 23 23 23 23 24 24 24 24 24 25 25 25 25 25 25 25 25 25 25 24 25 25 25 25 25 24 24 24 24 24 24 24 24 24 24 24 24 23 23 23 22 22 22 22 22 22 22 21 21 20 20
13 12 11 9 8 8 9 9 9 9 9 9 9 9 10 10 10 10 11 12 14 16 17 18 19 19 20 19 20 20 21 22 22 23 23 24 24 24 24 25 25 25 25 25 26 26 26 26 26 26 26 26 26 26 25 25 25 26 26 26 25 26 25 25 25 25 26 26 26 25 25 25 24 24 24 23 23 24 24 23 23 22 22 22 22
15 14 13 11 10 9 9 9 8 9 9 9 9 9 10 10 10 11 11 12 13 14 16 17 18 19 19 20 20 21 21 22 23 23 24 24 24 25 25 25 25 25 25 26 26 26 26 26 26 27 27 27 27 27 27 27 26 26 26 26 27 27 27 27 27 26 26 27 27 27 26 26 26 26 25 25 25 25 25 25 25 24 24 23 24
16 16 15 14 12 9 9 9 9 9 9 9 9 10 10 10 11 11 12 12 13 14 15 16 17 17 18 19 20 21 21 22 23 23 24 24 24 24 25 25 25 25 25 25 25 26 27 27 27 27 28 28 28 29 29 29 29 29 28 28 28 28 28 28 28 28 28 28 28 28 28 28 27 27 27 27 27 27 26 26 26 26 25 25 25
17 17 17 16 14 12 11 10 11 11 11 11 10 11 11 11 11 12 12 12 13 14 15 15 16 17 17 18 19 20 21 21 22 23 23 24 24 24 24 25 25 25 26 26 26 26 27 27 28 28 29 29 29 29 30 31 32 32 32 31 31 30 30 30 30 30 29 29 29 29 29 29 29 29 28 28 28 28 28 27 27 26 26 26 26
18 18 17 17 17 15 14 13 13 13 13 13 12 12 12 12 12 12 12 13 14 14 15 15 16 17 17 18 19 20 20 21 21 22 23 24 24 23 23 24 24 25 26 26 26 26 27 27 27 28 29 29 29 30 30 31 32 33 34 34 34 34 33 33 32 31 31 31 31 31 31 31 31 30 30 30 29 28 28 29 29 28 27 27 27
19 19 18 18 18 17 16 16 15 15 15 15 14 14 13 13 13 13 13 13 13 14 15 15 16 16 17 18 19 19 20 21 21 22 22 23 23 23 23 23 24 24 25 26 26 26 27 27 27 27 28 29 30 30 30 31 31 32 33 34 35 36 37 37 36 35 34 33 33 33 33 32 32 32 31 31 31 30 29 29 29 29 28 28 28
20 20 19 19 18 18 17 17 17 17 16 16 16 15 15 14 14 13 13 13 14 14 14 15 15 16 16 17 18 19 19 20 20 21 21 22 22 23 23 23 24 24 25 25 25 26 27 27 27 28 28 28 29 29 30 31 31 32 33 34 35 36 36 38 38 38 38 37 36 35 35 34 34 34 33 32 32 32 32 31 30 30 30 29 29
21 20 20 20 20 19 19 18 18 18 17 17 17 16 16 15 15 15 14 14 14 14 14 15 15 16 16 17 17 17 18 18 19 19 20 21 21 22 22 23 23 23 24 25 25 26 26 27 27 28 28 28 29 29 30 30 31 32 32 33 34 35 36 37 38 39 39 39 39 39 37 37 36 36 35 35 34 34 33 33 32 31 31 30 30
22 22 22 21 21 21 21 20 20 19 19 18 18 18 17 17 16 16 16 15 15 15 15 15 15 16 16 17 17 17 17 18 18 19 19 20 20 20 21 22 22 23 24 24 25 25 26 26 27 27 28 29 29 30 30 31 32 33 33 34 35 35 36 37 38 39 40 40 41 40 40 40 39 38 37 37 36 35 35 35 34 33 32 32 31
24 24 23 23 23 23 23 23 22 21 21 20 20 20 19 19 18 17 17 17 16 16 16 16 16 16 17 17 17 18 18 18 18 19 19 19 20 20 21 21 22 23 23 24 24 25 25 26 26 27 27 28 29 30 31 31 32 33 34 35 36 36 37 37 38 39 40 41 42 42 42 42 41 41 40 39 38 37 35 35 35 34 33 33 32
25 25 25 24 24 24 24 24 23 23 22 21 21 21 21 21 20 19 18 18 18 17 17 17 17 17 17 18 18 18 18 18 18 19 19 20 20 20 20 21 22 22 23 23 24 24 25 26 26 27 27 28 29 29 30 31 32 33 34 35 36 37 37 38 38 39 40 41 43 43 43 43 43 43 42 41 41 40 38 37 36 35 34 34 33
26 26 26 26 25 24 24 24 24 24 23 23 22 22 22 22 22 21 20 20 19 19 18 18 18 18 18 18 18 19 19 19 19 19 20 20 20 20 20 21 22 22 22 23 23 24 24 25 26 27 28 28 29 29 30 30 31 32 34 35 37 38 38 38 39 40 40 41 42 43 43 44 44 44 44 43 43 42 41 39 37 36 35 34 33
27 27 27 27 26 25 24 24 24 24 24 24 23 23 23 23 23 22 22 21 20 20 20 19 19 19 19 19 19 19 20 20 20 20 20 20 20 20 20 21 21 22 22 22 23 23 24 24 25 26 27 28 29 29 30 30 31 32 33 35 37 37 38 39 40 41 41 41 41 42 43 43 44 44 44 44 44 43 43 41 40 38 37 35 34
29 29 28 28 28 27 26 25 25 25 24 24 24 24 24 24 24 23 23 22 21 21 21 21 21 20 20 20 19 19 19 20 20 20 20 20 20 21 21 21 21 21 21 22 22 23 23 24 24 25 26 27 28 28 29 30 31 31 33 34 36 37 38 39 40 41 42 42 42 42 42 43 43 44 45 45 45 44 44 43 42 41 39 38 36
31 30 30 30 30 29 28 27 26 25 25 25 25 24 24 25 24 24 24 23 23 23 22 22 22 22 21 21 20 20 20 20 20 20 20 20 20 21 21 21 22 22 22 22 22 23 23 23 24 25 25 26 27 27 28 30 30 31 32 34 35 36 37 38 39 40 42 42 42 42 42 43 43 44 44 45 45 45 45 44 43 42 41 40 39
32 31 31 31 31 31 30 28 27 26 25 25 25 25 25 25 25 25 24 24 24 24 24 23 23 22 22 22 21 21 20 20 20 20 20 20 21 21 21 22 22 22 22 22 23 23 23 24 24 25 25 26 26 27 28 29 30 31 32 33 34 35 36 37 38 40 41 42 42 43 43 44 44 44 44 43 44 46 45 45 44 43 42 42 41
33 32 32 31 32 32 31 30 28 27 26 26 25 25 25 25 26 26 26 25 25 25 24 23 23 23 22 22 22 22 21 21 21 21 21 21 21 21 21 22 22 21 21 22 22 23 23 24 24 24 25 26 26 27 28 29 30 31 32 33 33 34 34 35 37 38 40 41 42 43 43 43 44 45 45 44 44 45 45 44 43 43 42 42 41
33 33 32 32 32 32 32 31 30 29 27 26 25 25 25 25 26 26 26 26 26 25 24 24 23 23 23 22 22 22 22 22 22 21 21 21 21 21 21 22 22 22 22 22 22 22 23 23 24 24 25 26 26 27 28 29 30 30 31 32 32 32 33 35 36 37 39 40 41 42 42 43 43 44 45 45 45 44 42 41 42 42 41 41 40
33 33 33 32 32 32 33 32 31 30 29 28 26 26 25 25 25 26 26 26 26 26 25 25 24 24 23 23 23 22 22 22 22 22 21 21 21 22 22 22 22 22 22 23 23 23 23 24 24 24 25 25 26 26 27 28 28 29 30 30 31 31 32 34 35 37 38 39 40 41 41 41 42 43 44 45 45 44 41 40 41 41 41 40 39
32 33 33 32 31 31 32 32 32 31 30 29 28 27 26 26 26 26 26 26 26 26 26 26 26 25 24 24 24 23 23 23 22 22 22 22 22 22 21 22 22 22 22 23 23 23 23 23 24 24 24 25 25 26 26 27 27 27 28 28 28 28 29 31 33 34 36 37 37 39 39 39 40 42 43 44 43 42 41 41 41 41 41 40 39
31 32 32 32 32 31 32 32 32 32 31 31 30 29 28 27 26 26 26 26 26 26 26 27 27 26 26 25 25 25 25 24 24 23 23 23 23 23 22 22 22 22 22 22 22 22 22 23 23 24 24 24 24 24 25 25 25 25 26 26 26 26 26 27 28 30 32 34 36 36 37 38 39 41 41 41 41 41 41 41 41 41 40 40 39
30 31 31 32 32 31 31 32 32 31 31 31 31 31 30 29 28 27 27 26 26 26 26 27 27 27 27 27 26 26 26 26 25 25 25 25 25 25 25 24 24 23 23 22 22 23 23 23 24 24 23 23 23 24 24 24 24 24 25 25 25 25 25 25 25 26 27 30 33 35 36 36 37 37 38 39 39 40 40 40 40 40 39 39 39
30 30 30 31 31 31 31 31 31 31 31 31 31 32 32 31 30 29 28 28 27 27 27 27 28 28 28 28 28 28 27 27 26 26 27 27 27 27 27 27 26 26 25 24 25 25 24 24 25 24 24 23 23 23 23 23 23 24 24 24 24 24 24 24 24 24 25 26 29 33 34 35 34 35 35 36 37 38 38 39 40 39 39 38 38
29 29 29 30 30 31 31 31 31 31 31 32 32 32 32 32 31 31 31 30 29 28 28 28 28 29 29 29 29 29 30 29 29 28 28 28 28 28 28 28 28 28 27 27 27 26 25 25 25 25 24 24 24 24 24 24 23 23 23 23 23 23 23 23 22 23 24 25 26 28 30 32 33 34 34 35 35 36 36 37 38 38 38 38 37
28 28 28 29 30 30 31 31 31 31 31 31 31 31 32 32 32 32 31 31 31 30 29 29 28 29 29 29 30 30 30 30 30 30 30 30 29 29 29 29 29 28 27 27 27 27 26 26 26 25 24 24 24 24 24 23 23 23 23 23 22 22 22 21 21 21 21 22 22 23 24 26 28 29 31 33 33 33 33 34 35 36 36 36 36
28 28 28 28 29 29 30 30 31 31 31 31 31 30 31 31 31 31 31 31 32 32 31 30 30 29 29 29 29 30 30 30 30 30 31 31 31 30 30 29 29 29 28 28 28 27 27 27 26 25 25 25 25 24 24 23 23 23 22 22 22 21 21 20 20 20 19 19 19 19 20 21 22 23 25 28 29 29 29 31 32 33 34 34 33
27 27 27 27 28 28 29 29 30 30 30 30 30 30 30 30 30 31 31 31 31 31 31 31 31 30 30 30 29 29 29 30 30 30 30 30 30 30 29 29 29 30 30 29 29 28 27 27 26 26 25 25 25 24 24 23 23 22 22 22 22 21 20 20 20 19 19 17 16 16 17 17 18 19 19 21 25 26 25 26 26 27 29 31 31
26 26 26 27 27 27 28 28 29 29 29 30 30 30 30 29 29 30 30 31 31 31 31 30 30 31 30 30 30 29 29 29 29 29 29 29 29 29 29 29 29 29 29 29 29 29 28 27 27 26 26 26 25 25 24 23 23 22 22 22 21 21 20 19 19 19 19 17 15 14 14 14 15 16 16 17 20 22 22 23 24 25 26 28 29
25 25 25 25 25 26 26 27 28 28 28 29 29 29 29 29 29 29 29 30 31 31 31 31 30 30 30 30 30 30 29 29 29 29 29 29 29 29 29 29 29 29 29 29 29 29 28 28 27 27 26 26 26 25 24 23 23 22 22 21 21 20 20 19 19 19 19 18 16 15 14 13 13 14 15 17 19 20 21 23 24 25 27 28 28
24 24 24 24 24 24 25 26 27 27 27 28 28 29 29 29 29 29 29 29 30 30 30 30 30 30 30 30 30 30 29 29 28 28 28 28 29 29 30 30 30 30 29 29 29 29 28 27 27 27 26 26 26 25 25 24 23 22 22 21 21 21 20 20 19 19 18 18 17 16 16 15 15 15 15 16 18 19 20 21 22 24 25 26 27
23 23 23 23 23 23 24 25 26 27 27 27 27 28 28 28 28 28 29 29 29 29 29 29 29 30 30 30 29 29 28 28 28 28 28 28 29 30 30 30 31 31 31 30 30 29 29 28 27 27 26 26 26 25 25 24 23 23 22 21 21 21 20 20 20 19 19 18 18 17 17 17 17 17 17 17 17 17 18 19 20 21 22 23 24
22 22 22 23 23 23 24 24 25 26 26 26 26 27 27 27 27 28 28 28 28 28 28 28 28 29 29 28 28 28 28 28 28 28 28 28 28 28 29 30 30 31 31 30 30 30 30 29 28 28 27 27 26 26 26 25 24 23 23 22 21 21 20 20 20 20 20 19 19 18 18 18 18 18 18 18 18 19 19 19 20 20 20 21 22
21 21 21 21 22 22 22 23 24 24 25 26 26 26 26 26 26 27 27 27 27 27 27 27 27 27 27 27 27 27 28 28 28 28 28 28 28 28 28 29 29 30 30 30 30 30 30 30 30 29 29 28 27 27 26 26 26 25 24 23 22 21 21 21 20 20 20 20 20 19 19 19 19 19 19 20 20 20 20 21 21 21 22 22 22
21 21 20 20 21 21 21 22 22 23 24 25 25 25 25 25 25 25 26 26 26 26 26 26 27 26 26 26 27 27 28 28 28 28 28 28 28 28 28 28 28 28 29 29 30 30 30 30 30 30 29 29 28 28 28 27 27 27 26 25 24 23 22 22 21 21 21 20 20 20 20 20 20 20 20 21 21 21 21 22 22 22 23 23 23
21 21 20 20 20 20 20 21 21 22 23 24 24 25 25 25 25 24 25 25 25 25 26 26 26 26 26 26 27 27 28 28 28 28 28 29 29 29 28 28 28 28 28 29 29 29 30 30 30 30 30 29 29 29 29 28 28 27 27 27 26 25 24 23 22 22 22 22 21 21 21 21 21 21 21 21 22 22 22 22 22 23 23 23 24
19 19 20 20 19 19 20 20 20 20 21 23 24 24 24 24 24 24 24 25 25 25 25 26 26 26 26 26 26 27 27 28 28 28 29 29 29 29 29 29 29 29 29 29 29 29 30 30 30 30 30 30 30 29 29 29 29 28 28 28 28 27 26 25 24 24 23 23 23 22 22 22 22 22 22 22 22 23 23 23 23 24 24 24 24
18 18 18 18 18 18 18 19 19 19 20 22 23 24 24 24 25 25 25 25 25 25 25 25 25 26 25 26 26 26 27 27 27 28 28 28 29 29 29 29 29 29 29 29 29 30 30 30 30 30 30 30 30 30 30 30 30 30 29 29 29 29 28 27 26 26 25 25 24 24 23 23 23 23 23 23 23 24 24 24 24 25 25 25 25
17 16 16 16 16 16 16 17 17 18 19 20 21 22 23 24 24 24 25 25 26 26 25 25 25 25 26 25 26 26 26 26 27 27 28 28 28 29 29 29 29 29 29 29 29 30 30 31 31 31 31 31 31 31 31 31 31 30 30 30 30 30 29 29 28 28 27 27 26 25 25 25 24 24 24 24 24 25 25 25 25 26 26 26 26
16 15 14 14 14 15 15 15 15 16 17 18 19 20 21 22 22 22 22 23 24 25 25 25 25 25 26 26 26 26 26 26 26 27 27 28 28 28 29 29 30 30 30 30 30 30 31 31 31 32 32 32 32 31 31 31 31 31 31 30 30 30 30 29 29 29 29 28 28 27 27 26 26 26 26 26 26 26 26 26 26 26 26 26 26
16 15 14 13 13 13 13 13 13 13 14 15 16 17 18 19 20 21 21 21 21 22 23 25 26 26 26 26 26 26 26 26 26 26 27 27 28 28 28 29 29 30 30 31 31 31 31 32 32 32 32 32 32 32 32 32 32 32 31 31 31 31 31 30 29 29 29 29 29 29 29 28 28 28 27 27 27 27 27 27 27 27 27 26 27
15 14 14 13 12 12 12 12 11 11 12 13 14 15 15 15 17 18 19 20 20 20 20 20 22 23 24 24 24 25 25 25 25 26 27 27 27 28 28 28 29 30 30 30 31 31 32 32 32 33 33 33 33 33 33 33 33 33 32 32 32 32 32 31 30 30 30 30 30 30 30 30 30 29 29 29 29 29 28 28 28 28 28 28 28
15 14 13 13 13 12 12 12 12 11 12 12 13 13 14 14 14 15 16 17 18 18 18 18 17 18 19 21 22 22 23 23 24 25 26 26 27 28 28 28 29 29 30 30 31 31 32 32 33 33 33 34 34 34 34 34 34 34 34 33 33 33 33 33 32 32 31 31 31 31 31 31 31 31 31 31 30 30 30 30 30 30 30 30 30
15 14 13 13 13 13 12 12 12 12 12 12 13 13 13 13 13 14 14 14 15 16 17 18 18 17 17 18 20 21 21 22 23 24 25 26 27 27 28 28 29 29 30 30 31 31 32 32 32 33 33 34 34 34 35 35 35 35 35 35 35 34 34 34 34 34 33 33 32 32 32 32 32 32 32 32 32 31 31 31 31 31 31 31 31
15 14 13 13 13 13 12 12 12 12 12 12 12 13 13 13 13 14 14 14 15 15 16 17 18 18 18 18 19 20 22 23 23 24 25 25 26 27 28 28 29 29 30 30 31 31 31 32 32 32 33 33 33 34 34 35 35 36 36 36 36 35 35 35 35 35 35 35 34 33 33 33 34 33 33 33 33 33 33 33 33 32 32 32 32
Wind_Direction
315 312 309 302 294 287 285 284 283 279 274 268 264 258 249 242 241 241 241 239 236 234 232 230 229 224 217 215 217 218 219 220 220 220 221 222 223 225 226 227 228 228 229 230 230 232 232 234 235 235 236 237 238 239 240 241 242 242 242 243 242 242 242 242 243 245 246 244 245 248 246 242 239 237 237 237 235 235 237 237 237 238 240 241 240
319 315 313 307 297 290 289 289 285 279 275 274 271 260 247 242 241 240 240 239 236 234 233 231 230 226 219 218 219 219 220 221 222 222 223 224 225 226 228 229 230 231 231 232 233 233 234 235 236 236 237 238 239 240 241 241 242 243 243 243 243 243 243 242 243 244 246 245 245 247 248 246 242 239 238 239 238 237 237 237 238 239 240 241 242
322 318 315 310 303 297 294 292 286 280 276 277 278 266 248 242 243 242 240 239 236 235 234 233 233 231 226 223 222 221 222 223 223 223 224 225 226 227 228 230 231 232 233 234 235 235 236 237 237 238 238 238 240 241 242 242 242 243 244 244 244 244 243 243 243 244 245 246 246 247 248 247 244 241 240 240 240 239 238 239 240 240 240 241 244
322 319 316 312 309 306 302 295 286 282 282 280 281 275 256 246 244 243 242 238 236 235 234 233 233 232 228 226 225 224 225 225 225 226 226 227 228 229 230 231 232 234 235 236 236 237 238 238 239 239 239 240 241 242 243 243 243 243 244 244 245 245 245 244 243 243 245 246 247 247 248 248 246 244 242 241 241 240 240 242 243 243 242 242 245
317 317 315 313 311 310 307 300 289 284 284 281 279 275 266 256 250 246 244 241 237 235 234 234 234 233 230 229 227 227 227 228 228 228 229 230 231 231 232 233 234 235 237 238 238 238 239 240 240 241 241 241 241 242 243 244 244 244 244 245 245 245 245 246 245 245 245 246 247 248 248 248 247 246 244 243 242 243 243 243 244 245 244 243 246
311 310 311 310 311 311 307 301 295 290 286 281 277 273 266 261 258 252 246 243 240 237 236 235 236 235 233 231 229 229 230 230 231 231 232 232 233 234 234 235 236 237 238 239 240 240 241 241 242 242 242 243 243 243 243 244 245 245 245 245 245 246 246 246 246 246 246 246 247 248 248 248 248 247 246 246 245 245 246 245 244 245 246 245 247
304 303 302 302 308 313 307 299 296 294 291 287 281 274 265 259 258 256 251 246 243 241 239 238 237 237 236 235 233 232 232 233 233 234 234 234 235 236 236 237 238 239 240 240 241 242 243 243 243 243 243 244 244 244 244 245 246 246 246 246 246 246 247 247 247 247 247 248 248 248 248 248 248 248 247 246 246 246 247 247 245 245 247 247 248
300 297 293 292 298 304 303 300 296 294 294 292 285 277 269 263 259 257 255 250 247 244 243 242 241 240 239 238 236 235 235 235 235 235 236 237 237 238 239 239 240 241 242 242 243 243 244 244 244 244 244 245 245 246 246 246 247 247 247 247 247 246 247 247 247 248 248 249 248 248 248 247 247 248 247 246 246 247 248 249 248 247 247 248 249
297 294 289 286 287 291 295 296 293 291 292 291 285 280 274 268 263 259 257 254 252 249 247 245 243 242 241 240 239 238 238 238 238 238 238 238 239 240 241 241 242 242 243 244 244 245 245 245 245 246 246 246 246 247 247 247 248 248 248 248 247 247 247 247 248 248 248 249 249 249 248 248 247 247 247 247 248 248 248 249 250 250 250 250 251
295 293 289 285 283 283 286 287 285 284 285 285 283 279 275 271 266 263 259 256 254 252 250 248 245 244 243 242 240 240 240 241 240 240 240 240 240 241 242 242 243 243 245 246 246 246 246 247 247 247 248 248 248 248 249 249 249 249 249 249 248 248 247 247 247 248 248 248 249 249 249 249 248 247 247 247 248 248 249 249 250 251 250 252 253
292 291 289 286 284 283 285 284 281 279 279 280 278 275 273 271 268 264 260 257 255 252 251 249 247 245 244 243 242 242 243 243 241 241 241 242 242 242 243 244 244 245 246 247 248 248 249 249 249 249 249 250 250 250 251 251 251 250 251 250 250 249 249 248 248 248 248 249 249 249 249 249 249 248 248 248 248 249 249 250 251 250 250 251 253
289 288 286 284 283 283 283 282 279 277 277 277 275 272 269 268 266 264 261 258 255 252 251 249 248 247 246 245 244 244 245 245 243 242 243 242 243 244 244 245 246 247 248 248 249 250 251 251 250 250 250 251 252 252 252 252 252 251 251 251 251 250 250 250 250 249 249 249 250 249 249 249 249 249 248 248 248 249 249 250 251 251 251 252 253
287 285 283 280 279 278 279 279 277 275 274 274 273 270 267 265 265 264 262 259 256 253 251 249 248 247 247 247 246 246 247 246 244 243 243 243 243 244 245 247 247 248 249 249 250 250 251 252 252 252 252 252 253 253 254 254 253 253 252 252 251 251 250 250 250 250 250 250 250 250 249 249 249 249 249 248 248 248 250 251 250 250 251 252 253
284 283 281 278 276 275 276 277 277 275 273 273 272 269 265 264 264 263 262 260 257 254 252 250 249 248 247 247 247 247 248 247 245 244 243 243 242 243 246 248 248 249 249 250 251 251 252 253 253 254 254 254 254 254 254 255 255 254 254 253 253 252 251 251 250 250 250 250 250 250 250 250 250 249 249 248 248 248 249 250 249 249 251 252 253
284 281 279 277 275 274 273 273 273 274 273 272 271 268 265 263 262 261 260 259 257 255 253 251 250 249 248 247 247 247 247 246 245 243 243 243 243 244 247 248 249 251 251 252 252 253 253 254 254 255 255 255 255 255 255 256 256 255 255 255 254 254 253 253 252 251 250 250 250 250 250 250 250 250 249 249 249 249 249 249 251 251 252 253 253
284 282 279 277 275 273 273 271 269 269 269 269 268 266 264 263 261 259 257 257 256 255 254 253 251 250 249 248 247 248 247 246 245 244 244 244 244 246 248 250 251 252 253 253 254 254 255 255 255 256 256 256 257 257 257 257 258 257 257 257 256 256 256 255 253 253 252 251 250 250 250 250 249 249 249 248 248 249 249 250 251 252 252 253 253
283 282 280 278 276 274 273 271 269 267 265 264 263 263 262 262 261 259 256 255 255 254 254 254 253 251 250 249 249 249 249 247 245 246 246 245 246 248 249 251 252 253 254 255 255 256 256 256 257 257 258 258 258 258 258 259 259 260 260 259 259 259 258 257 255 254 253 252 251 250 250 249 249 249 248 248 248 248 249 249 250 250 250 252 253
282 281 280 279 277 274 273 272 270 269 267 264 262 261 260 259 260 259 256 253 254 254 254 254 254 253 252 251 250 250 251 248 246 247 247 247 248 250 251 253 254 255 256 257 257 258 258 258 258 259 259 260 260 260 260 260 260 261 261 261 261 260 259 259 257 256 254 253 252 251 250 249 249 248 248 247 247 247 247 248 249 249 250 251 253
282 280 279 279 277 275 273 272 271 270 269 268 265 263 261 259 258 258 257 255 254 254 255 254 254 254 253 253 253 252 252 251 249 248 249 248 249 251 252 254 255 256 258 258 259 259 260 260 260 260 261 262 262 262 262 262 262 262 263 264 263 262 261 260 258 257 255 253 252 251 250 249 248 248 247 246 246 246 247 248 248 249 249 250 251
280 278 277 276 276 275 274 273 272 270 269 268 266 265 263 261 259 258 258 257 256 255 254 254 254 254 253 254 254 253 253 253 252 250 250 250 249 251 253 254 255 257 258 259 260 261 261 262 262 261 262 263 264 264 263 263 263 264 265 265 265 264 263 261 259 257 256 254 253 252 251 250 249 248 247 246 246 245 246 246 247 248 249 249 250
277 276 275 274 274 274 273 274 273 271 270 268 266 265 263 262 261 260 259 258 257 255 254 253 253 254 254 254 253 253 253 254 253 251 250 250 249 250 253 255 256 258 259 260 261 262 262 263 263 263 263 264 266 266 266 265 266 267 267 267 267 266 264 262 260 259 257 256 254 253 252 251 250 250 249 247 246 246 245 245 246 247 247 248 250
275 274 273 272 271 271 272 272 271 270 269 268 266 265 263 261 261 260 260 259 258 255 253 252 252 253 253 253 253 253 253 253 253 252 251 251 250 251 253 255 256 258 260 261 262 263 263 264 264 265 265 266 267 268 268 268 268 269 270 270 269 267 265 263 261 259 258 256 255 254 252 252 251 251 250 248 246 246 245 244 244 245 246 247 248
274 272 270 269 269 269 269 270 269 268 268 267 266 265 263 260 259 258 259 259 258 256 253 252 253 254 253 252 252 253 253 253 253 253 252 252 253 253 254 256 257 258 260 262 263 264 265 265 266 268 269 269 269 269 269 270 271 272 272 272 271 269 266 264 262 260 258 257 255 254 253 252 251 250 249 248 247 246 244 243 243 244 245 246 247
273 271 269 267 266 266 267 267 266 265 265 266 265 264 263 260 258 256 257 257 257 256 254 252 252 253 253 252 252 252 253 253 253 253 253 254 255 255 256 257 258 259 261 263 264 265 266 267 269 270 271 272 272 271 271 272 272 273 274 274 273 270 267 264 262 260 259 257 256 255 253 252 251 249 248 248 248 246 243 242 242 243 244 245 246
271 271 269 268 266 265 265 264 263 262 262 263 262 262 261 260 257 255 255 255 255 256 256 254 252 251 252 253 253 253 253 253 254 254 254 255 255 256 257 258 258 259 261 263 264 266 268 269 271 273 274 274 274 273 273 273 274 274 275 275 274 273 269 266 263 260 259 257 256 255 253 252 251 250 248 248 247 245 242 241 242 242 243 244 244
270 269 269 268 266 264 264 262 261 260 259 259 260 259 259 259 258 256 255 255 255 255 256 256 254 253 253 254 254 255 254 254 253 253 254 255 256 256 257 258 259 260 261 263 265 267 269 271 273 274 275 275 275 275 275 275 276 276 276 276 276 274 272 268 265 261 258 256 255 255 254 253 251 250 249 248 246 243 241 242 242 242 242 242 244
270 269 268 267 265 264 263 262 260 258 257 257 257 257 258 258 258 257 256 256 255 255 255 254 254 254 254 254 254 255 255 254 254 254 254 256 256 256 257 258 259 260 262 264 266 267 269 271 272 274 276 276 276 276 276 277 277 278 278 278 278 276 274 273 268 263 258 256 255 255 255 254 252 250 249 247 243 241 241 243 243 242 241 241 243
272 270 268 266 265 263 262 261 260 258 256 255 254 255 255 256 257 257 256 256 256 256 255 254 254 254 254 254 254 255 255 254 254 255 255 256 256 257 257 258 259 261 263 264 266 268 270 272 273 275 277 277 277 278 277 277 278 279 280 281 280 278 278 278 274 267 260 257 255 255 255 254 252 251 248 244 241 241 242 244 245 244 241 240 241
274 272 269 266 264 262 261 260 259 258 256 254 254 253 253 255 256 256 256 256 256 257 256 255 255 255 254 255 255 256 255 255 256 256 256 256 257 257 257 258 259 260 262 264 266 269 271 273 275 276 276 277 278 279 279 279 279 280 282 282 281 281 281 280 277 273 266 260 257 256 255 254 252 249 246 243 242 243 243 243 244 243 241 240 241
276 273 270 267 263 261 260 259 258 257 256 255 254 253 253 253 253 254 255 255 256 257 257 256 256 256 256 256 256 256 256 257 258 258 257 257 257 257 258 259 260 260 261 263 266 268 270 272 274 275 276 276 278 279 280 280 280 281 282 283 283 283 283 281 278 276 273 269 264 259 255 254 252 248 244 242 242 242 242 242 242 242 241 241 241
276 274 271 268 264 261 259 258 257 257 256 255 254 254 253 252 252 252 253 254 255 256 256 257 257 257 256 257 257 257 257 258 258 258 258 258 258 258 258 259 260 261 262 263 265 266 268 269 271 273 274 275 277 278 280 280 280 281 282 283 283 284 284 282 280 278 278 277 273 266 258 254 252 248 244 242 241 242 243 243 242 242 242 241 240
276 274 272 269 265 262 259 258 257 256 256 255 255 254 253 253 252 252 252 253 254 255 256 256 256 256 256 256 256 257 257 258 258 258 259 259 259 259 258 259 260 260 261 262 263 265 266 267 269 271 272 274 275 277 278 279 280 280 281 282 283 284 284 283 282 282 282 280 278 271 262 255 252 248 244 241 240 240 241 241 242 242 241 240 238
277 275 272 269 266 263 260 257 256 256 255 254 254 254 254 253 253 252 252 252 253 255 255 256 256 256 256 256 256 257 257 258 259 259 259 259 259 259 259 259 259 259 259 260 262 263 264 265 266 268 270 272 273 275 277 278 279 279 280 281 281 282 283 282 282 282 282 281 278 273 264 257 253 249 244 239 236 237 239 241 243 241 238 236 236
278 276 273 269 266 263 260 257 256 255 254 253 253 253 254 254 253 253 252 252 253 253 254 255 255 256 256 256 256 256 257 258 259 259 258 258 258 258 258 259 259 258 258 259 260 261 263 264 265 266 267 269 271 273 275 276 277 278 278 279 279 280 281 281 280 279 280 279 276 272 265 258 252 250 245 237 233 235 239 241 241 237 234 233 235
279 276 273 270 266 262 260 257 256 254 254 253 252 252 253 253 254 254 253 252 253 253 253 254 254 254 255 256 256 256 256 257 258 258 258 257 257 257 257 258 258 258 258 258 258 259 262 263 264 264 266 267 269 270 272 274 275 276 277 277 277 278 278 278 278 277 277 277 275 271 266 259 251 249 246 239 234 236 239 240 239 236 234 234 235
280 277 274 270 266 262 259 257 255 254 253 253 252 252 252 252 253 254 253 253 253 253 254 254 254 253 254 255 255 255 256 256 257 257 257 257 256 256 256 257 257 258 258 258 257 259 261 262 263 263 264 265 266 268 269 271 273 274 275 276 276 277 276 276 276 276 275 275 273 269 264 259 253 249 248 244 241 240 241 241 240 238 237 237 237
280 277 274 270 267 263 260 258 255 254 254 253 253 252 252 252 252 253 254 253 254 254 254 254 254 253 253 253 254 254 255 256 256 257 258 257 256 256 256 257 257 258 259 258 258 259 260 261 262 262 263 264 265 266 267 269 270 272 273 274 275 275 275 274 273 273 273 272 271 267 263 259 256 252 250 247 246 244 243 241 240 239 238 238 239
280 277 274 271 267 264 262 259 256 255 254 253 253 252 252 251 252 252 253 254 254 254 254 255 254 254 253 253 252 252 253 255 256 257 257 257 257 257 257 257 257 257 258 259 259 259 260 260 261 262 262 263 263 264 265 266 268 270 271 273 273 273 273 272 271 270 269 269 268 265 262 259 256 254 252 249 247 245 243 241 239 238 237 237 238
280 278 275 271 268 265 262 260 257 255 253 253 253 252 252 252 252 252 253 254 254 254 254 254 254 254 253 253 251 251 253 254 256 257 257 257 257 257 258 257 257 257 257 257 258 258 259 259 260 261 262 262 262 262 263 264 266 267 269 271 272 272 272 271 270 269 267 266 265 263 261 258 255 254 252 250 248 246 245 243 241 239 238 239 239
282 280 277 273 269 266 263 260 257 255 253 252 252 252 252 252 253 253 254 254 254 254 254 254 254 253 253 252 252 253 254 255 256 257 257 257 257 258 258 259 259 258 257 257 257 257 257 258 259 260 261 261 261 261 261 262 263 265 266 267 269 271 271 270 270 268 267 265 263 261 259 257 255 253 252 250 249 248 246 245 243 242 242 242 242
284 281 279 275 271 268 264 261 258 255 253 252 251 251 252 252 253 253 254 254 254 254 253 253 253 253 252 252 252 253 255 256 256 257 257 258 258 258 258 259 259 259 258 257 257 257 257 257 258 259 260 260 260 261 261 261 261 263 264 265 266 267 268 269 269 268 266 265 263 261 259 256 254 253 251 250 249 248 247 246 245 244 244 243 242
286 284 281 277 274 270 266 262 259 256 254 252 251 251 251 251 252 253 254 254 254 254 253 253 253 254 253 253 253 254 255 256 257 258 258 258 258 258 259 259 260 260 259 258 258 257 257 257 258 258 259 259 260 260 260 260 260 261 262 262 263 263 264 265 266 266 265 264 263 261 259 257 254 253 252 250 249 249 248 247 246 245 244 243 242
290 286 284 280 276 273 270 266 262 259 256 254 252 251 251 251 252 252 254 254 254 254 254 254 254 255 254 253 253 255 256 256 257 258 258 258 259 259 259 259 260 260 260 259 258 258 258 258 258 258 258 259 260 259 259 259 259 259 260 260 261 261 262 262 263 263 263 263 261 260 259 257 255 254 253 251 250 249 248 247 246 246 245 244 243
299 292 288 284 280 275 271 268 265 263 260 258 256 254 253 253 253 253 254 254 254 254 255 255 255 255 255 254 254 255 256 257 257 258 258 258 259 259 259 259 259 259 259 259 259 259 258 258 258 258 258 259 259 259 259 258 258 259 260 259 259 259 260 260 260 260 260 260 260 259 258 257 256 255 254 252 251 250 250 248 247 246 246 245 245
313 305 299 294 288 282 275 270 266 264 264 263 261 258 255 254 254 254 254 254 254 253 254 255 255 255 255 255 255 256 256 257 258 258 259 259 259 259 259 259 259 259 259 259 259 259 259 259 259 259 259 259 259 259 259 258 258 259 259 260 259 259 259 258 258 258 258 258 258 258 258 257 256 255 255 254 253 252 252 250 248 247 246 246 245
324 320 313 306 300 295 288 280 272 268 267 267 266 263 259 255 256 258 258 257 256 255 254 254 255 256 256 256 256 257 258 258 259 259 260 260 260 260 260 260 260 260 260 260 259 259 260 260 260 260 260 260 260 260 260 259 259 259 259 259 259 259 259 258 257 257 257 256 257 257 257 256 256 255 255 255 254 254 253 252 250 248 247 246 245
326 326 323 318 313 308 303 296 288 280 275 271 271 271 268 261 259 259 259 259 260 261 258 256 255 255 256 256 257 258 259 260 260 260 261 261 261 261 261 262 262 262 262 261 261 260 260 260 260 261 261 260 260 260 260 260 260 259 259 259 259 259 259 258 257 256 256 256 256 256 255 255 255 255 254 254 254 254 253 252 251 249 248 248 247
327 326 325 323 320 316 311 306 300 294 288 282 278 279 280 275 268 263 260 259 261 263 264 263 261 257 256 256 258 259 260 261 261 262 262 262 263 263 263 263 264 264 264 263 262 262 262 261 261 261 261 261 261 260 260 260 260 259 259 259 258 258 258 257 257 256 256 256 256 255 255 254 255 254 254 253 253 253 252 252 251 250 249 249 248
326 326 324 324 322 319 316 312 306 300 295 291 286 284 285 282 277 273 269 265 262 262 264 268 270 268 263 261 261 261 262 263 264 264 264 264 264 265 265 265 265 265 265 265 265 264 264 263 263 262 262 261 261 261 260 260 260 259 259 258 258 258 257 257 257 256 256 256 256 255 254 254 254 254 254 253 252 252 252 252 251 250 250 250 250
325 325 323 322 321 319 315 313 309 304 299 296 291 289 287 284 280 277 276 274 271 268 266 267 271 274 273 269 266 264 265 266 266 267 267 266 267 267 267 267 267 267 267 267 267 267 266 266 264 263 263 262 262 261 261 260 260 259 259 258 258 258 257 257 256 256 255 255 256 255 255 254 254 254 253 253 252 252 252 251 251 251 251 251 251
325 324 323 322 321 319 316 314 312 309 306 302 298 294 290 286 282 280 277 276 276 275 273 271 272 275 277 276 273 270 269 269 269 269 269 269 269 269 269 269 269 269 269 269 268 268 268 267 266 265 264 263 263 262 261 261 260 260 259 258 258 258 257 257 256 255 255 255 255 255 255 255 255 254 253 253 252 251 251 251 251 252 252 252 252